Year,Month,Day,Hour,Minute,Value (Times are PST for temperature in C)
2021,07,06,00,00,18.80
2021,07,06,00,01,18.80
2021,07,06,00,02,18.80
2021,07,06,00,03,18.70
2021,07,06,00,04,18.70
2021,07,06,00,05,18.70
2021,07,06,00,06,18.60
2021,07,06,00,07,18.60
2021,07,06,00,08,18.60
2021,07,06,00,09,18.60
2021,07,06,00,10,18.50
2021,07,06,00,11,18.50
2021,07,06,00,12,18.50
2021,07,06,00,13,18.40
2021,07,06,00,14,18.40
2021,07,06,00,15,18.40
2021,07,06,00,16,18.30
2021,07,06,00,17,18.30
2021,07,06,00,18,18.20
2021,07,06,00,19,18.20
2021,07,06,00,20,18.20
2021,07,06,00,21,18.10
2021,07,06,00,22,18.10
2021,07,06,00,23,18.00
2021,07,06,00,24,18.00
2021,07,06,00,25,17.90
2021,07,06,00,26,17.90
2021,07,06,00,27,17.80
2021,07,06,00,28,17.80
2021,07,06,00,29,17.80
2021,07,06,00,30,17.70
2021,07,06,00,31,17.70
2021,07,06,00,32,17.70
2021,07,06,00,33,17.70
2021,07,06,00,34,17.70
2021,07,06,00,35,17.70
2021,07,06,00,36,17.60
2021,07,06,00,37,17.60
2021,07,06,00,38,17.60
2021,07,06,00,39,17.60
2021,07,06,00,40,17.60
2021,07,06,00,41,17.60
2021,07,06,00,42,17.60
2021,07,06,00,43,17.50
2021,07,06,00,44,17.50
2021,07,06,00,45,17.40
2021,07,06,00,46,17.40
2021,07,06,00,47,17.40
2021,07,06,00,48,17.40
2021,07,06,00,49,17.40
2021,07,06,00,50,17.40
2021,07,06,00,51,17.30
2021,07,06,00,52,17.30
2021,07,06,00,53,17.30
2021,07,06,00,54,17.30
2021,07,06,00,55,17.20
2021,07,06,00,56,17.20
2021,07,06,00,57,17.20
2021,07,06,00,58,17.20
2021,07,06,00,59,17.20
2021,07,06,01,00,17.10
2021,07,06,01,01,17.10
2021,07,06,01,02,17.10
2021,07,06,01,03,17.10
2021,07,06,01,04,17.10
2021,07,06,01,05,17.10
2021,07,06,01,06,17.00
2021,07,06,01,07,17.00
2021,07,06,01,08,17.00
2021,07,06,01,09,17.00
2021,07,06,01,10,16.90
2021,07,06,01,11,16.90
2021,07,06,01,12,16.90
2021,07,06,01,13,16.90
2021,07,06,01,14,16.90
2021,07,06,01,15,16.90
2021,07,06,01,16,16.90
2021,07,06,01,17,16.90
2021,07,06,01,18,16.90
2021,07,06,01,19,16.80
2021,07,06,01,20,16.80
2021,07,06,01,21,16.80
2021,07,06,01,22,16.80
2021,07,06,01,23,16.80
2021,07,06,01,24,16.70
2021,07,06,01,25,16.70
2021,07,06,01,26,16.70
2021,07,06,01,27,16.70
2021,07,06,01,28,16.70
2021,07,06,01,29,16.60
2021,07,06,01,30,16.60
2021,07,06,01,31,16.60
2021,07,06,01,32,16.50
2021,07,06,01,33,16.50
2021,07,06,01,34,16.50
2021,07,06,01,35,16.50
2021,07,06,01,36,16.40
2021,07,06,01,37,16.40
2021,07,06,01,38,16.40
2021,07,06,01,39,16.40
2021,07,06,01,40,16.40
2021,07,06,01,41,16.40
2021,07,06,01,42,16.40
2021,07,06,01,43,16.30
2021,07,06,01,44,16.30
2021,07,06,01,45,16.30
2021,07,06,01,46,16.30
2021,07,06,01,47,16.30
2021,07,06,01,48,16.30
2021,07,06,01,49,16.30
2021,07,06,01,50,16.30
2021,07,06,01,51,16.20
2021,07,06,01,52,16.20
2021,07,06,01,53,16.20
2021,07,06,01,54,16.20
2021,07,06,01,55,16.20
2021,07,06,01,56,16.20
2021,07,06,01,57,16.20
2021,07,06,01,58,16.20
2021,07,06,01,59,16.20
2021,07,06,02,00,16.10
2021,07,06,02,01,16.10
2021,07,06,02,02,16.10
2021,07,06,02,03,16.10
2021,07,06,02,04,16.10
2021,07,06,02,05,16.10
2021,07,06,02,06,16.00
2021,07,06,02,07,16.00
2021,07,06,02,08,16.00
2021,07,06,02,09,16.00
2021,07,06,02,10,16.00
2021,07,06,02,11,15.90
2021,07,06,02,12,15.90
2021,07,06,02,13,15.90
2021,07,06,02,14,15.90
2021,07,06,02,15,15.90
2021,07,06,02,16,15.90
2021,07,06,02,17,16.00
2021,07,06,02,18,16.00
2021,07,06,02,19,16.00
2021,07,06,02,20,16.00
2021,07,06,02,21,16.00
2021,07,06,02,22,16.00
2021,07,06,02,23,16.00
2021,07,06,02,24,16.10
2021,07,06,02,25,16.00
2021,07,06,02,26,16.00
2021,07,06,02,27,16.00
2021,07,06,02,28,16.00
2021,07,06,02,29,16.00
2021,07,06,02,30,16.00
2021,07,06,02,31,15.90
2021,07,06,02,32,15.90
2021,07,06,02,33,15.90
2021,07,06,02,34,15.90
2021,07,06,02,35,15.90
2021,07,06,02,36,15.80
2021,07,06,02,37,15.80
2021,07,06,02,38,15.80
2021,07,06,02,39,15.80
2021,07,06,02,40,15.80
2021,07,06,02,41,15.80
2021,07,06,02,42,15.80
2021,07,06,02,43,15.80
2021,07,06,02,44,15.70
2021,07,06,02,45,15.70
2021,07,06,02,46,15.70
2021,07,06,02,47,15.70
2021,07,06,02,48,15.70
2021,07,06,02,49,15.70
2021,07,06,02,50,15.70
2021,07,06,02,51,15.70
2021,07,06,02,52,15.70
2021,07,06,02,53,15.70
2021,07,06,02,54,15.60
2021,07,06,02,55,15.60
2021,07,06,02,56,15.60
2021,07,06,02,57,15.60
2021,07,06,02,58,15.60
2021,07,06,02,59,15.50
2021,07,06,03,00,15.50
2021,07,06,03,01,15.50
2021,07,06,03,02,15.50
2021,07,06,03,03,15.40
2021,07,06,03,04,15.40
2021,07,06,03,05,15.40
2021,07,06,03,06,15.40
2021,07,06,03,07,15.40
2021,07,06,03,08,15.40
2021,07,06,03,09,15.40
2021,07,06,03,10,15.40
2021,07,06,03,11,15.40
2021,07,06,03,12,15.30
2021,07,06,03,13,15.30
2021,07,06,03,14,15.30
2021,07,06,03,15,15.30
2021,07,06,03,16,15.30
2021,07,06,03,17,15.30
2021,07,06,03,18,15.30
2021,07,06,03,19,15.30
2021,07,06,03,20,15.30
2021,07,06,03,21,15.20
2021,07,06,03,22,15.20
2021,07,06,03,23,15.20
2021,07,06,03,24,15.20
2021,07,06,03,25,15.20
2021,07,06,03,26,15.20
2021,07,06,03,27,15.10
2021,07,06,03,28,15.10
2021,07,06,03,29,15.10
2021,07,06,03,30,15.10
2021,07,06,03,31,15.10
2021,07,06,03,32,15.10
2021,07,06,03,33,15.10
2021,07,06,03,34,15.00
2021,07,06,03,35,15.00
2021,07,06,03,36,15.00
2021,07,06,03,37,15.00
2021,07,06,03,38,15.00
2021,07,06,03,39,15.00
2021,07,06,03,40,14.90
2021,07,06,03,41,14.90
2021,07,06,03,42,14.90
2021,07,06,03,43,14.90
2021,07,06,03,44,14.90
2021,07,06,03,45,14.90
2021,07,06,03,46,14.80
2021,07,06,03,47,14.80
2021,07,06,03,48,14.80
2021,07,06,03,49,14.80
2021,07,06,03,50,14.80
2021,07,06,03,51,14.80
2021,07,06,03,52,14.80
2021,07,06,03,53,14.80
2021,07,06,03,54,14.70
2021,07,06,03,55,14.70
2021,07,06,03,56,14.70
2021,07,06,03,57,14.70
2021,07,06,03,58,14.70
2021,07,06,03,59,14.70
2021,07,06,04,00,14.70
2021,07,06,04,01,14.70
2021,07,06,04,02,14.70
2021,07,06,04,03,14.70
2021,07,06,04,04,14.70
2021,07,06,04,05,14.70
2021,07,06,04,06,14.70
2021,07,06,04,07,14.70
2021,07,06,04,08,14.70
2021,07,06,04,09,14.70
2021,07,06,04,10,14.70
2021,07,06,04,11,14.70
2021,07,06,04,12,14.70
2021,07,06,04,13,14.70
2021,07,06,04,14,14.70
2021,07,06,04,15,14.70
2021,07,06,04,16,14.70
2021,07,06,04,17,14.70
2021,07,06,04,18,14.70
2021,07,06,04,19,14.70
2021,07,06,04,20,14.70
2021,07,06,04,21,14.70
2021,07,06,04,22,14.70
2021,07,06,04,23,14.70
2021,07,06,04,24,14.70
2021,07,06,04,25,14.70
2021,07,06,04,26,14.70
2021,07,06,04,27,14.70
2021,07,06,04,28,14.70
2021,07,06,04,29,14.70
2021,07,06,04,30,14.60
2021,07,06,04,31,14.60
2021,07,06,04,32,14.60
2021,07,06,04,33,14.60
2021,07,06,04,34,14.60
2021,07,06,04,35,14.60
2021,07,06,04,36,14.60
2021,07,06,04,37,14.60
2021,07,06,04,38,14.60
2021,07,06,04,39,14.50
2021,07,06,04,40,14.50
2021,07,06,04,41,14.50
2021,07,06,04,42,14.50
2021,07,06,04,43,14.50
2021,07,06,04,44,14.40
2021,07,06,04,45,14.50
2021,07,06,04,46,14.40
2021,07,06,04,47,14.40
2021,07,06,04,48,14.40
2021,07,06,04,49,14.40
2021,07,06,04,50,14.40
2021,07,06,04,51,14.40
2021,07,06,04,52,14.40
2021,07,06,04,53,14.40
2021,07,06,04,54,14.30
2021,07,06,04,55,14.30
2021,07,06,04,56,14.30
2021,07,06,04,57,14.30
2021,07,06,04,58,14.30
2021,07,06,04,59,14.30
2021,07,06,05,00,14.30
2021,07,06,05,01,14.30
2021,07,06,05,02,14.20
2021,07,06,05,03,14.20
2021,07,06,05,04,14.20
2021,07,06,05,05,14.20
2021,07,06,05,06,14.20
2021,07,06,05,07,14.20
2021,07,06,05,08,14.20
2021,07,06,05,09,14.10
2021,07,06,05,10,14.10
2021,07,06,05,11,14.10
2021,07,06,05,12,14.10
2021,07,06,05,13,14.10
2021,07,06,05,14,14.10
2021,07,06,05,15,14.10
2021,07,06,05,16,14.00
2021,07,06,05,17,14.00
2021,07,06,05,18,14.00
2021,07,06,05,19,14.00
2021,07,06,05,20,13.90
2021,07,06,05,21,13.90
2021,07,06,05,22,13.90
2021,07,06,05,23,13.90
2021,07,06,05,24,13.90
2021,07,06,05,25,13.90
2021,07,06,05,26,13.80
2021,07,06,05,27,13.80
2021,07,06,05,28,13.80
2021,07,06,05,29,13.80
2021,07,06,05,30,13.80
2021,07,06,05,31,13.80
2021,07,06,05,32,13.80
2021,07,06,05,33,13.70
2021,07,06,05,34,13.70
2021,07,06,05,35,13.70
2021,07,06,05,36,13.70
2021,07,06,05,37,13.70
2021,07,06,05,38,13.70
2021,07,06,05,39,13.40
2021,07,06,05,40,12.90
2021,07,06,05,41,12.90
2021,07,06,05,42,12.80
2021,07,06,05,43,12.90
2021,07,06,05,44,13.40
2021,07,06,05,45,13.80
2021,07,06,05,46,13.80
2021,07,06,05,47,13.80
2021,07,06,05,48,13.80
2021,07,06,05,49,13.80
2021,07,06,05,50,13.80
2021,07,06,05,51,13.80
2021,07,06,05,52,13.80
2021,07,06,05,53,13.80
2021,07,06,05,54,13.00
2021,07,06,05,55,12.90
2021,07,06,05,56,12.90
2021,07,06,05,57,12.90
2021,07,06,05,58,12.90
2021,07,06,05,59,12.80
2021,07,06,06,00,12.80
2021,07,06,06,01,12.90
2021,07,06,06,02,13.40
2021,07,06,06,03,13.50
2021,07,06,06,04,13.50
2021,07,06,06,05,13.50
2021,07,06,06,06,13.60
2021,07,06,06,07,13.60
2021,07,06,06,08,13.60
2021,07,06,06,09,13.70
2021,07,06,06,10,13.70
2021,07,06,06,11,13.70
2021,07,06,06,12,13.70
2021,07,06,06,13,13.70
2021,07,06,06,14,13.70
2021,07,06,06,15,13.70
2021,07,06,06,16,13.70
2021,07,06,06,17,13.70
2021,07,06,06,18,13.70
2021,07,06,06,19,13.70
2021,07,06,06,20,13.70
2021,07,06,06,21,13.70
2021,07,06,06,22,13.70
2021,07,06,06,23,13.70
2021,07,06,06,24,13.80
2021,07,06,06,25,13.80
2021,07,06,06,26,13.80
2021,07,06,06,27,13.80
2021,07,06,06,28,13.80
2021,07,06,06,29,13.80
2021,07,06,06,30,13.90
2021,07,06,06,31,13.90
2021,07,06,06,32,13.90
2021,07,06,06,33,13.90
2021,07,06,06,34,14.00
2021,07,06,06,35,14.00
2021,07,06,06,36,14.00
2021,07,06,06,37,14.10
2021,07,06,06,38,14.10
2021,07,06,06,39,14.10
2021,07,06,06,40,14.20
2021,07,06,06,41,14.20
2021,07,06,06,42,14.30
2021,07,06,06,43,14.40
2021,07,06,06,44,14.40
2021,07,06,06,45,14.50
2021,07,06,06,46,14.50
2021,07,06,06,47,14.60
2021,07,06,06,48,14.60
2021,07,06,06,49,14.70
2021,07,06,06,50,14.80
2021,07,06,06,51,14.80
2021,07,06,06,52,14.80
2021,07,06,06,53,14.80
2021,07,06,06,54,14.80
2021,07,06,06,55,14.80
2021,07,06,06,56,14.80
2021,07,06,06,57,14.80
2021,07,06,06,58,14.80
2021,07,06,06,59,14.90
2021,07,06,07,00,14.90
2021,07,06,07,01,14.90
2021,07,06,07,02,14.90
2021,07,06,07,03,14.90
2021,07,06,07,04,14.90
2021,07,06,07,05,14.90
2021,07,06,07,06,14.90
2021,07,06,07,07,14.90
2021,07,06,07,08,15.00
2021,07,06,07,09,15.00
2021,07,06,07,10,15.10
2021,07,06,07,11,15.20
2021,07,06,07,12,15.20
2021,07,06,07,13,15.30
2021,07,06,07,14,15.30
2021,07,06,07,15,15.40
2021,07,06,07,16,15.40
2021,07,06,07,17,15.50
2021,07,06,07,18,15.50
2021,07,06,07,19,15.60
2021,07,06,07,20,15.60
2021,07,06,07,21,15.70
2021,07,06,07,22,15.70
2021,07,06,07,23,15.80
2021,07,06,07,24,15.80
2021,07,06,07,25,15.90
2021,07,06,07,26,16.00
2021,07,06,07,27,16.10
2021,07,06,07,28,16.20
2021,07,06,07,29,16.20
2021,07,06,07,30,16.30
2021,07,06,07,31,16.30
2021,07,06,07,32,16.40
2021,07,06,07,33,16.40
2021,07,06,07,34,16.50
2021,07,06,07,35,16.50
2021,07,06,07,36,16.60
2021,07,06,07,37,16.60
2021,07,06,07,38,16.60
2021,07,06,07,39,16.60
2021,07,06,07,40,16.70
2021,07,06,07,41,16.70
2021,07,06,07,42,16.70
2021,07,06,07,43,16.80
2021,07,06,07,44,16.80
2021,07,06,07,45,16.90
2021,07,06,07,46,16.90
2021,07,06,07,47,17.00
2021,07,06,07,48,17.10
2021,07,06,07,49,17.10
2021,07,06,07,50,17.10
2021,07,06,07,51,17.20
2021,07,06,07,52,17.20
2021,07,06,07,53,17.20
2021,07,06,07,54,17.30
2021,07,06,07,55,17.30
2021,07,06,07,56,17.40
2021,07,06,07,57,17.40
2021,07,06,07,58,17.50
2021,07,06,07,59,17.60
2021,07,06,08,00,17.60
2021,07,06,08,01,17.60
2021,07,06,08,02,17.60
2021,07,06,08,03,17.60
2021,07,06,08,04,17.60
2021,07,06,08,05,17.60
2021,07,06,08,06,17.70
2021,07,06,08,07,17.70
2021,07,06,08,08,17.70
2021,07,06,08,09,17.70
2021,07,06,08,10,17.70
2021,07,06,08,11,17.80
2021,07,06,08,12,17.90
2021,07,06,08,13,17.90
2021,07,06,08,14,18.00
2021,07,06,08,15,18.00
2021,07,06,08,16,18.00
2021,07,06,08,17,18.10
2021,07,06,08,18,18.10
2021,07,06,08,19,18.10
2021,07,06,08,20,18.10
2021,07,06,08,21,18.20
2021,07,06,08,22,18.20
2021,07,06,08,23,18.30
2021,07,06,08,24,18.40
2021,07,06,08,25,18.50
2021,07,06,08,26,18.60
2021,07,06,08,27,18.70
2021,07,06,08,28,18.70
2021,07,06,08,29,18.80
2021,07,06,08,30,18.90
2021,07,06,08,31,18.90
2021,07,06,08,32,19.00
2021,07,06,08,33,19.10
2021,07,06,08,34,19.20
2021,07,06,08,35,19.20
2021,07,06,08,36,19.20
2021,07,06,08,37,19.20
2021,07,06,08,38,19.30
2021,07,06,08,39,19.30
2021,07,06,08,40,19.40
2021,07,06,08,41,19.50
2021,07,06,08,42,19.60
2021,07,06,08,43,19.70
2021,07,06,08,44,19.70
2021,07,06,08,45,19.70
2021,07,06,08,46,19.70
2021,07,06,08,47,19.70
2021,07,06,08,48,19.70
2021,07,06,08,49,19.70
2021,07,06,08,50,19.70
2021,07,06,08,51,19.70
2021,07,06,08,52,19.70
2021,07,06,08,53,19.70
2021,07,06,08,54,19.80
2021,07,06,08,55,19.80
2021,07,06,08,56,19.80
2021,07,06,08,57,19.80
2021,07,06,08,58,19.80
2021,07,06,08,59,19.70
2021,07,06,09,00,19.70
2021,07,06,09,01,19.70
2021,07,06,09,02,19.70
2021,07,06,09,03,19.70
2021,07,06,09,04,19.80
2021,07,06,09,05,19.80
2021,07,06,09,06,19.80
2021,07,06,09,07,19.70
2021,07,06,09,08,19.80
2021,07,06,09,09,19.80
2021,07,06,09,10,19.80
2021,07,06,09,11,19.80
2021,07,06,09,12,19.90
2021,07,06,09,13,20.00
2021,07,06,09,14,20.00
2021,07,06,09,15,20.10
2021,07,06,09,16,20.10
2021,07,06,09,17,20.20
2021,07,06,09,18,20.30
2021,07,06,09,19,20.40
2021,07,06,09,20,20.40
2021,07,06,09,21,20.40
2021,07,06,09,22,20.30
2021,07,06,09,23,20.30
2021,07,06,09,24,20.30
2021,07,06,09,25,20.30
2021,07,06,09,26,20.30
2021,07,06,09,27,20.30
2021,07,06,09,28,20.40
2021,07,06,09,29,20.40
2021,07,06,09,30,20.50
2021,07,06,09,31,20.60
2021,07,06,09,32,20.60
2021,07,06,09,33,20.70
2021,07,06,09,34,20.70
2021,07,06,09,35,20.70
2021,07,06,09,36,20.60
2021,07,06,09,37,20.60
2021,07,06,09,38,20.60
2021,07,06,09,39,20.60
2021,07,06,09,40,20.60
2021,07,06,09,41,20.70
2021,07,06,09,42,20.70
2021,07,06,09,43,20.80
2021,07,06,09,44,20.80
2021,07,06,09,45,20.80
2021,07,06,09,46,20.80
2021,07,06,09,47,20.90
2021,07,06,09,48,21.00
2021,07,06,09,49,21.10
2021,07,06,09,50,21.10
2021,07,06,09,51,21.20
2021,07,06,09,52,21.20
2021,07,06,09,53,21.20
2021,07,06,09,54,21.20
2021,07,06,09,55,21.20
2021,07,06,09,56,21.20
2021,07,06,09,57,21.20
2021,07,06,09,58,21.10
2021,07,06,09,59,21.10
2021,07,06,10,00,21.10
2021,07,06,10,01,21.10
2021,07,06,10,02,21.20
2021,07,06,10,03,21.20
2021,07,06,10,04,21.20
2021,07,06,10,05,21.20
2021,07,06,10,06,21.20
2021,07,06,10,07,21.20
2021,07,06,10,08,21.30
2021,07,06,10,09,21.30
2021,07,06,10,10,21.30
2021,07,06,10,11,21.30
2021,07,06,10,12,21.30
2021,07,06,10,13,21.30
2021,07,06,10,14,21.30
2021,07,06,10,15,21.30
2021,07,06,10,16,21.30
2021,07,06,10,17,21.40
2021,07,06,10,18,21.40
2021,07,06,10,19,21.50
2021,07,06,10,20,21.50
2021,07,06,10,21,21.60
2021,07,06,10,22,21.70
2021,07,06,10,23,21.80
2021,07,06,10,24,21.90
2021,07,06,10,25,22.00
2021,07,06,10,26,22.00
2021,07,06,10,27,22.00
2021,07,06,10,28,22.10
2021,07,06,10,29,22.10
2021,07,06,10,30,22.10
2021,07,06,10,31,22.10
2021,07,06,10,32,22.10
2021,07,06,10,33,22.10
2021,07,06,10,34,22.10
2021,07,06,10,35,22.10
2021,07,06,10,36,22.20
2021,07,06,10,37,22.30
2021,07,06,10,38,22.50
2021,07,06,10,39,22.50
2021,07,06,10,40,22.60
2021,07,06,10,41,22.60
2021,07,06,10,42,22.50
2021,07,06,10,43,22.40
2021,07,06,10,44,22.30
2021,07,06,10,45,22.30
2021,07,06,10,46,22.20
2021,07,06,10,47,22.20
2021,07,06,10,48,22.10
2021,07,06,10,49,22.10
2021,07,06,10,50,22.20
2021,07,06,10,51,22.20
2021,07,06,10,52,22.30
2021,07,06,10,53,22.40
2021,07,06,10,54,22.50
2021,07,06,10,55,22.60
2021,07,06,10,56,22.80
2021,07,06,10,57,22.80
2021,07,06,10,58,22.90
2021,07,06,10,59,22.90
2021,07,06,11,00,22.90
2021,07,06,11,01,22.90
2021,07,06,11,02,22.80
2021,07,06,11,03,22.80
2021,07,06,11,04,22.80
2021,07,06,11,05,22.80
2021,07,06,11,06,22.80
2021,07,06,11,07,22.80
2021,07,06,11,08,22.90
2021,07,06,11,09,22.90
2021,07,06,11,10,22.90
2021,07,06,11,11,22.90
2021,07,06,11,12,22.90
2021,07,06,11,13,22.90
2021,07,06,11,14,22.90
2021,07,06,11,15,23.00
2021,07,06,11,16,23.10
2021,07,06,11,17,23.20
2021,07,06,11,18,23.10
2021,07,06,11,19,23.10
2021,07,06,11,20,23.10
2021,07,06,11,21,23.20
2021,07,06,11,22,23.20
2021,07,06,11,23,23.20
2021,07,06,11,24,23.30
2021,07,06,11,25,23.30
2021,07,06,11,26,23.30
2021,07,06,11,27,23.20
2021,07,06,11,28,23.10
2021,07,06,11,29,23.10
2021,07,06,11,30,23.10
2021,07,06,11,31,23.10
2021,07,06,11,32,23.10
2021,07,06,11,33,23.20
2021,07,06,11,34,23.20
2021,07,06,11,35,23.20
2021,07,06,11,36,23.30
2021,07,06,11,37,23.40
2021,07,06,11,38,23.40
2021,07,06,11,39,23.40
2021,07,06,11,40,23.50
2021,07,06,11,41,23.50
2021,07,06,11,42,23.50
2021,07,06,11,43,23.50
2021,07,06,11,44,23.40
2021,07,06,11,45,23.40
2021,07,06,11,46,23.30
2021,07,06,11,47,23.20
2021,07,06,11,48,23.10
2021,07,06,11,49,23.00
2021,07,06,11,50,22.90
2021,07,06,11,51,23.00
2021,07,06,11,52,23.10
2021,07,06,11,53,23.30
2021,07,06,11,54,23.40
2021,07,06,11,55,23.50
2021,07,06,11,56,23.60
2021,07,06,11,57,23.70
2021,07,06,11,58,23.80
2021,07,06,11,59,23.80
2021,07,06,12,00,23.80
2021,07,06,12,01,23.80
2021,07,06,12,02,23.90
2021,07,06,12,03,23.90
2021,07,06,12,04,23.90
2021,07,06,12,05,23.90
2021,07,06,12,06,23.90
2021,07,06,12,07,24.00
2021,07,06,12,08,24.20
2021,07,06,12,09,24.30
2021,07,06,12,10,24.40
2021,07,06,12,11,24.50
2021,07,06,12,12,24.60
2021,07,06,12,13,24.60
2021,07,06,12,14,24.50
2021,07,06,12,15,24.50
2021,07,06,12,16,24.40
2021,07,06,12,17,24.40
2021,07,06,12,18,24.30
2021,07,06,12,19,24.30
2021,07,06,12,20,24.40
2021,07,06,12,21,24.40
2021,07,06,12,22,24.40
2021,07,06,12,23,24.30
2021,07,06,12,24,24.30
2021,07,06,12,25,24.30
2021,07,06,12,26,24.30
2021,07,06,12,27,24.40
2021,07,06,12,28,24.40
2021,07,06,12,29,24.40
2021,07,06,12,30,24.50
2021,07,06,12,31,24.60
2021,07,06,12,32,24.60
2021,07,06,12,33,24.70
2021,07,06,12,34,24.70
2021,07,06,12,35,24.70
2021,07,06,12,36,24.80
2021,07,06,12,37,24.80
2021,07,06,12,38,24.70
2021,07,06,12,39,24.70
2021,07,06,12,40,24.70
2021,07,06,12,41,24.70
2021,07,06,12,42,24.70
2021,07,06,12,43,24.70
2021,07,06,12,44,24.60
2021,07,06,12,45,24.60
2021,07,06,12,46,24.60
2021,07,06,12,47,24.60
2021,07,06,12,48,24.70
2021,07,06,12,49,24.60
2021,07,06,12,50,24.60
2021,07,06,12,51,24.50
2021,07,06,12,52,24.40
2021,07,06,12,53,24.50
2021,07,06,12,54,24.60
2021,07,06,12,55,24.60
2021,07,06,12,56,24.70
2021,07,06,12,57,24.80
2021,07,06,12,58,24.80
2021,07,06,12,59,24.90
2021,07,06,13,00,24.90
2021,07,06,13,01,25.00
2021,07,06,13,02,25.00
2021,07,06,13,03,25.10
2021,07,06,13,04,25.10
2021,07,06,13,05,25.10
2021,07,06,13,06,25.10
2021,07,06,13,07,25.20
2021,07,06,13,08,25.30
2021,07,06,13,09,25.30
2021,07,06,13,10,25.40
2021,07,06,13,11,25.40
2021,07,06,13,12,25.50
2021,07,06,13,13,25.50
2021,07,06,13,14,25.50
2021,07,06,13,15,25.60
2021,07,06,13,16,25.70
2021,07,06,13,17,25.70
2021,07,06,13,18,25.80
2021,07,06,13,19,25.80
2021,07,06,13,20,25.70
2021,07,06,13,21,25.70
2021,07,06,13,22,25.70
2021,07,06,13,23,25.60
2021,07,06,13,24,25.60
2021,07,06,13,25,25.50
2021,07,06,13,26,25.40
2021,07,06,13,27,25.40
2021,07,06,13,28,25.30
2021,07,06,13,29,25.40
2021,07,06,13,30,25.40
2021,07,06,13,31,25.50
2021,07,06,13,32,25.50
2021,07,06,13,33,25.50
2021,07,06,13,34,25.60
2021,07,06,13,35,25.60
2021,07,06,13,36,25.70
2021,07,06,13,37,25.80
2021,07,06,13,38,25.80
2021,07,06,13,39,25.90
2021,07,06,13,40,25.90
2021,07,06,13,41,25.90
2021,07,06,13,42,25.90
2021,07,06,13,43,25.90
2021,07,06,13,44,26.00
2021,07,06,13,45,26.20
2021,07,06,13,46,26.30
2021,07,06,13,47,26.30
2021,07,06,13,48,26.40
2021,07,06,13,49,26.50
2021,07,06,13,50,26.60
2021,07,06,13,51,26.70
2021,07,06,13,52,26.70
2021,07,06,13,53,26.70
2021,07,06,13,54,26.70
2021,07,06,13,55,26.70
2021,07,06,13,56,26.60
2021,07,06,13,57,26.60
2021,07,06,13,58,26.60
2021,07,06,13,59,26.50
2021,07,06,14,00,26.40
2021,07,06,14,01,26.40
2021,07,06,14,02,26.40
2021,07,06,14,03,26.40
2021,07,06,14,04,26.50
2021,07,06,14,05,26.50
2021,07,06,14,06,26.60
2021,07,06,14,07,26.60
2021,07,06,14,08,26.60
2021,07,06,14,09,26.60
2021,07,06,14,10,26.60
2021,07,06,14,11,26.50
2021,07,06,14,12,26.50
2021,07,06,14,13,26.50
2021,07,06,14,14,26.60
2021,07,06,14,15,26.70
2021,07,06,14,16,26.70
2021,07,06,14,17,26.80
2021,07,06,14,18,26.80
2021,07,06,14,19,26.90
2021,07,06,14,20,27.00
2021,07,06,14,21,27.10
2021,07,06,14,22,27.20
2021,07,06,14,23,27.20
2021,07,06,14,24,27.20
2021,07,06,14,25,27.20
2021,07,06,14,26,27.20
2021,07,06,14,27,27.20
2021,07,06,14,28,27.30
2021,07,06,14,29,27.30
2021,07,06,14,30,27.40
2021,07,06,14,31,27.40
2021,07,06,14,32,27.40
2021,07,06,14,33,27.40
2021,07,06,14,34,27.40
2021,07,06,14,35,27.50
2021,07,06,14,36,27.60
2021,07,06,14,37,27.60
2021,07,06,14,38,27.60
2021,07,06,14,39,27.60
2021,07,06,14,40,27.60
2021,07,06,14,41,27.60
2021,07,06,14,42,27.60
2021,07,06,14,43,27.60
2021,07,06,14,44,27.60
2021,07,06,14,45,27.50
2021,07,06,14,46,27.50
2021,07,06,14,47,27.40
2021,07,06,14,48,27.40
2021,07,06,14,49,27.30
2021,07,06,14,50,27.40
2021,07,06,14,51,27.50
2021,07,06,14,52,27.60
2021,07,06,14,53,27.60
2021,07,06,14,54,27.70
2021,07,06,14,55,27.80
2021,07,06,14,56,27.80
2021,07,06,14,57,27.90
2021,07,06,14,58,27.90
2021,07,06,14,59,27.90
2021,07,06,15,00,28.00
2021,07,06,15,01,28.00
2021,07,06,15,02,28.00
2021,07,06,15,03,28.10
2021,07,06,15,04,28.10
2021,07,06,15,05,28.10
2021,07,06,15,06,28.10
2021,07,06,15,07,28.10
2021,07,06,15,08,28.10
2021,07,06,15,09,28.10
2021,07,06,15,10,28.10
2021,07,06,15,11,28.20
2021,07,06,15,12,28.20
2021,07,06,15,13,28.20
2021,07,06,15,14,28.20
2021,07,06,15,15,28.20
2021,07,06,15,16,28.20
2021,07,06,15,17,28.10
2021,07,06,15,18,27.90
2021,07,06,15,19,27.80
2021,07,06,15,20,27.80
2021,07,06,15,21,27.70
2021,07,06,15,22,27.70
2021,07,06,15,23,27.70
2021,07,06,15,24,27.80
2021,07,06,15,25,27.80
2021,07,06,15,26,27.80
2021,07,06,15,27,27.90
2021,07,06,15,28,28.00
2021,07,06,15,29,28.10
2021,07,06,15,30,28.10
2021,07,06,15,31,28.10
2021,07,06,15,32,28.00
2021,07,06,15,33,28.00
2021,07,06,15,34,28.00
2021,07,06,15,35,28.00
2021,07,06,15,36,28.00
2021,07,06,15,37,27.90
2021,07,06,15,38,27.80
2021,07,06,15,39,27.90
2021,07,06,15,40,27.90
2021,07,06,15,41,28.00
2021,07,06,15,42,28.10
2021,07,06,15,43,28.20
2021,07,06,15,44,28.30
2021,07,06,15,45,28.40
2021,07,06,15,46,28.40
2021,07,06,15,47,28.30
2021,07,06,15,48,28.30
2021,07,06,15,49,28.30
2021,07,06,15,50,28.30
2021,07,06,15,51,28.30
2021,07,06,15,52,28.30
2021,07,06,15,53,28.30
2021,07,06,15,54,28.30
2021,07,06,15,55,28.30
2021,07,06,15,56,28.30
2021,07,06,15,57,28.30
2021,07,06,15,58,28.20
2021,07,06,15,59,28.10
2021,07,06,16,00,28.00
2021,07,06,16,01,27.90
2021,07,06,16,02,27.80
2021,07,06,16,03,27.80
2021,07,06,16,04,27.80
2021,07,06,16,05,27.80
2021,07,06,16,06,27.90
2021,07,06,16,07,28.00
2021,07,06,16,08,28.00
2021,07,06,16,09,28.00
2021,07,06,16,10,28.10
2021,07,06,16,11,28.10
2021,07,06,16,12,28.20
2021,07,06,16,13,28.20
2021,07,06,16,14,28.30
2021,07,06,16,15,28.30
2021,07,06,16,16,28.40
2021,07,06,16,17,28.40
2021,07,06,16,18,28.30
2021,07,06,16,19,28.30
2021,07,06,16,20,28.20
2021,07,06,16,21,28.10
2021,07,06,16,22,28.10
2021,07,06,16,23,28.10
2021,07,06,16,24,28.20
2021,07,06,16,25,28.20
2021,07,06,16,26,28.20
2021,07,06,16,27,28.10
2021,07,06,16,28,28.10
2021,07,06,16,29,28.10
2021,07,06,16,30,28.10
2021,07,06,16,31,28.10
2021,07,06,16,32,28.10
2021,07,06,16,33,28.10
2021,07,06,16,34,28.10
2021,07,06,16,35,28.10
2021,07,06,16,36,28.20
2021,07,06,16,37,28.20
2021,07,06,16,38,28.30
2021,07,06,16,39,28.30
2021,07,06,16,40,28.30
2021,07,06,16,41,28.30
2021,07,06,16,42,28.40
2021,07,06,16,43,28.40
2021,07,06,16,44,28.40
2021,07,06,16,45,28.50
2021,07,06,16,46,28.50
2021,07,06,16,47,28.50
2021,07,06,16,48,28.60
2021,07,06,16,49,28.60
2021,07,06,16,50,28.60
2021,07,06,16,51,28.60
2021,07,06,16,52,28.50
2021,07,06,16,53,28.40
2021,07,06,16,54,28.40
2021,07,06,16,55,28.40
2021,07,06,16,56,28.40
2021,07,06,16,57,28.50
2021,07,06,16,58,28.50
2021,07,06,16,59,28.60
2021,07,06,17,00,28.60
2021,07,06,17,01,28.60
2021,07,06,17,02,28.60
2021,07,06,17,03,28.60
2021,07,06,17,04,28.50
2021,07,06,17,05,28.50
2021,07,06,17,06,28.40
2021,07,06,17,07,28.40
2021,07,06,17,08,28.50
2021,07,06,17,09,28.60
2021,07,06,17,10,28.60
2021,07,06,17,11,28.60
2021,07,06,17,12,28.70
2021,07,06,17,13,28.70
2021,07,06,17,14,28.70
2021,07,06,17,15,28.70
2021,07,06,17,16,28.80
2021,07,06,17,17,28.80
2021,07,06,17,18,28.90
2021,07,06,17,19,28.90